[[{"header":{"parameterUnit":"m.s-1","parameterCategory":1,"la1":30.2991,"la2":30.254,"lo1":-89.0895,"lo2":-89.0444,"dy":0.0017,"dx":0.0017,"nx":28,"ny":28,"refTime":"2024-10-17T03:00:00:Z","depth":0,"parameterNumber":2,"parameterNumberName":"U-component_of_WINDS"},"data":[0,0,0,0,0,0,0,0,0,0,0,0,0,0,0,0,0,0,0,0,0,0,0,0,0,0,0,0,0,0,0,0,0,0,0,0,0,0,0,0,0,0,0,0,0,0,0,0,0,0,0,0,0,0,0,0,0,0,-2.421,-2.421,0,-2.4181,-2.4181,-2.418,-2.4082,-2.4079,-2.4077,-2.4075,-2.4048,-2.4049,-2.405,0,0,0,0,0,0,0,0,0,0,0,0,0,-2.4184,-2.4185,-2.421,-2.421,-2.421,-2.4181,-2.4181,-2.418,-2.4082,-2.4079,-2.4077,-2.4074,-2.4047,-2.4049,-2.405,0,0,0,0,0,0,0,0,0,0,0,0,0,-2.4179,-2.4186,-2.421,-2.4157,-2.4152,-2.4181,-2.4181,-2.418,-2.4083,-2.4079,-2.4076,-2.4073,-2.4047,-2.4049,-2.4051,-2.413,0,0,-2.4057,-2.4058,0,0,0,0,0,0,0,0,-2.418,-2.4181,-2.4165,-2.4161,-2.4155,-2.4131,-2.4161,-2.4163,-2.4083,-2.4109,-2.4075,-2.4071,-2.4079,-2.4078,-2.408,-2.4129,-2.4127,-2.4057,-2.4058,-2.4059,-2.406,0,0,0,0,0,0,0,-2.418,-2.4181,-2.4199,-2.4165,-2.4159,-2.4136,-2.4131,-2.4161,-2.4113,-2.4107,-2.4099,-2.4097,-2.4075,-2.4078,-2.4078,-2.4127,-2.4057,-2.4059,-2.406,-2.4061,-2.4242,-2.4245,0,0,0,0,0,0,-2.4188,-2.4182,-2.42,-2.4198,-2.4159,-2.4139,-2.4134,-2.4143,-2.4112,-2.4104,-2.41,-2.4093,-2.4076,-2.4076,-2.4077,-2.4169,-2.4059,-2.4061,-2.4062,-2.4238,-2.4242,-2.4246,0,0,0,0,0,0,-2.4188,-2.419,-2.4201,-2.4188,-2.4188,-2.4143,-2.4153,-2.4144,-2.4146,-2.4107,-2.4098,-2.4112,-2.4073,-2.4074,-2.4118,-2.4167,-2.4062,-2.4064,-2.4234,-2.4239,-2.4244,-2.4354,0,0,0,0,0,0,-2.4187,-2.4191,-2.422,-2.4189,-2.4189,-2.4242,-2.4156,-2.4146,-2.415,-2.414,-2.4116,-2.4109,-2.4071,-2.4115,-2.412,-2.4168,-2.4065,-2.4229,-2.4236,-2.4243,-2.4346,-2.4362,-2.4377,0,0,0,0,0,-2.4187,-2.4252,-2.4222,-2.4224,-2.4224,-2.4245,-2.4244,-2.4199,-2.4154,-2.4184,-2.4159,-2.4109,-2.416,-2.4121,-2.4125,-2.4174,-2.4226,-2.4234,-2.4242,-2.4339,-2.4359,-2.4376,0,0,0,0,0,0,-2.429,-2.4247,-2.4213,-2.427,-2.4262,-2.4228,-2.4263,-2.4221,-2.4226,-2.4217,-2.4161,-2.4156,-2.4209,-2.4195,-2.4152,-2.425,-2.4185,-2.4194,-2.4257,-2.4276,-2.4291,-2.4294,-2.4067,0,0,0,0,0,-2.4319,-2.4339,-2.43,-2.4355,-2.4352,-2.4309,-2.4316,-2.4282,-2.4271,-2.4268,-2.4246,-2.4238,-2.4252,-2.4263,-2.4274,-2.4343,-2.4337,-2.4379,-2.4394,-2.4407,-2.4417,-2.4454,-2.4473,-2.4273,-2.4273,-2.4273,0,0,-2.438,-2.4359,-2.4375,-2.4375,-2.4364,-2.4387,-2.4307,-2.4334,-2.4351,-2.4272,-2.4312,-2.4296,-2.4284,-2.4341,-2.4365,-2.4332,-2.447,-2.4417,-2.4428,-2.443,-2.4464,-2.4483,-2.45,-2.4278,-2.4277,-2.4276,0,0,-2.4503,-2.4488,-2.4533,-2.4524,-2.4509,-2.448,-2.4491,-2.4463,-2.445,-2.4489,-2.4431,-2.445,-2.4475,-2.447,-2.447,-2.4593,-2.4549,-2.4598,-2.4679,-2.4716,-2.4732,-2.4746,-2.4792,-2.4808,-2.4607,-2.4607,-2.4607,0,-2.4581,-2.4612,-2.4561,-2.4593,-2.4595,-2.4524,-2.4569,-2.4563,-2.4553,-2.4557,-2.452,-2.4551,-2.4538,-2.4594,-2.4624,-2.4626,-2.4638,-2.4601,-2.4734,-2.4747,-2.4759,-2.4802,-2.4819,-2.4613,-2.4613,-2.4612,-2.4611,0,-2.471,-2.4733,-2.4771,-2.4762,-2.4769,-2.4807,-2.4763,-2.4776,-2.4741,-2.4717,-2.4759,-2.474,-2.4747,-2.4757,-2.4724,-2.4809,-2.4789,-2.4743,-2.4677,-2.4785,-2.4825,-2.4841,-2.4622,-2.462,-2.4618,-2.4617,0,0,-2.4898,-2.4861,-2.4876,-2.4872,-2.4851,-2.4868,-2.4904,-2.491,-2.4923,-2.4918,-2.4948,-2.4972,-2.493,-2.4931,-2.4896,-2.4928,-2.5029,-2.4878,-2.4877,-2.4909,-2.5125,-2.5161,-2.5181,-2.4999,-2.5001,-2.5004,-2.5126,0,-2.5017,-2.5075,-2.503,-2.5097,-2.5119,-2.5052,-2.5083,-2.5075,-2.5053,-2.5069,-2.5044,-2.5063,-2.5005,-2.5005,-2.5034,-2.5011,-2.5072,-2.5001,-2.5028,-2.503,-2.5035,-2.5201,-2.5239,-2.5355,-2.5141,-2.5144,-2.5146,0,-2.5163,-2.5165,-2.5234,-2.521,-2.5217,-2.5246,-2.5249,-2.5264,-2.5253,-2.5235,-2.5237,-2.5194,-2.5229,-2.5162,-2.5211,-2.5164,-2.5172,-2.5162,-2.5166,-2.5168,-2.5096,-2.521,-2.5391,-2.541,-2.5169,-2.5167,-2.5166,0,-2.5296,-2.5316,-2.536,-2.5359,-2.533,-2.5353,-2.5342,-2.5328,-2.5335,-2.5338,-2.5342,-2.5349,-2.5353,-2.536,-2.5321,-2.5276,-2.5376,-2.5306,-2.5363,-2.5365,-2.5389,-2.5388,-2.5576,-2.5391,-2.5391,-2.5391,-2.539,0,-2.5434,-2.548,-2.542,-2.5448,-2.5497,-2.5446,-2.5497,-2.5479,-2.5467,-2.5491,-2.5433,-2.5457,-2.5403,-2.5422,-2.5391,-2.5437,-2.5439,-2.5427,-2.5419,-2.5433,-2.5435,-2.544,-2.5431,-2.5395,-2.5394,-2.5393,-2.5392,0,-2.5592,-2.5553,-2.5598,-2.5567,-2.5561,-2.5599,-2.5574,-2.5599,-2.5573,-2.5604,-2.5609,-2.5569,-2.5588,-2.5549,-2.5563,-2.5543,-2.5609,-2.5586,-2.5613,-2.5607,-2.5668,-2.5664,-2.5867,-2.5892,-2.5689,-2.5691,-2.5692,0,-2.5684,-2.5718,-2.5691,-2.5703,-2.5695,-2.5715,-2.5722,-2.5672,-2.5682,-2.5673,-2.57,-2.5714,-2.5723,-2.5758,-2.5731,-2.5742,-2.5721,-2.5792,-2.5723,-2.5737,-2.5725,-2.5725,-2.5729,-2.5807,-2.5809,-2.5811,-2.5813,0,-2.5852,-2.5831,-2.5843,-2.5849,-2.5859,-2.5861,-2.5859,-2.5873,-2.582,-2.5835,-2.5854,-2.5861,-2.5875,-2.5891,-2.5896,-2.5886,-2.5843,-2.5834,-2.5849,-2.5866,-2.588,-2.5876,-2.5654,-2.5831,-2.5829,-2.5827,-2.5826,-2.5826,-2.5981,-2.6008,-2.5994,-2.601,-2.6003,-2.6004,-2.6026,-2.6003,-2.6018,-2.6026,-2.5995,-2.6022,-2.6012,-2.6013,-2.6008,-2.6029,-2.5998,-2.6018,-2.6024,-2.603,-2.6041,-2.5875,-2.603,-2.6029,-2.6029,-2.6028,-2.6028,0,-2.6148,-2.6136,-2.615,-2.615,-2.6163,-2.6118,-2.6114,-2.6129,-2.6152,-2.6146,-2.6156,-2.6179,-2.6194,-2.6169,-2.618,-2.6202,-2.6183,-2.6207,-2.6206,-2.6205,-2.6067,-2.6055,-2.6223,-2.6223,-2.6223,-2.6223,-2.6223,-2.6223,-2.6237,-2.6282,-2.626,-2.6301,-2.6288,-2.6313,-2.6315,-2.6316,-2.631,-2.6338,-2.6351,-2.6333,-2.632,-2.633,-2.6343,-2.6335,-2.6343,-2.6376,-2.6362,-2.6234,-2.6215,-2.6197,-2.6185,-2.6378,-2.6378,-2.6498,-2.6499,-2.65]},{"header":{"parameterUnit":"m.s-1","parameterCategory":1,"la1":30.2991,"la2":30.254,"lo1":-89.0895,"lo2":-89.0444,"dy":0.0017,"dx":0.0017,"nx":28,"ny":28,"refTime":"2024-10-17T03:00:00:Z","depth":0,"parameterNumber":3,"parameterNumberName":"V-component_of_WINDS"},"data":[0,0,0,0,0,0,0,0,0,0,0,0,0,0,0,0,0,0,0,0,0,0,0,0,0,0,0,0,0,0,0,0,0,0,0,0,0,0,0,0,0,0,0,0,0,0,0,0,0,0,0,0,0,0,0,0,0,0,-1.1187,-1.1187,0,-1.1223,-1.1224,-1.1224,-1.1214,-1.1214,-1.1213,-1.1212,-1.1251,-1.1252,-1.1254,0,0,0,0,0,0,0,0,0,0,0,0,0,-1.1111,-1.1112,-1.1187,-1.1187,-1.1188,-1.1223,-1.1224,-1.1224,-1.1214,-1.1214,-1.1213,-1.1212,-1.125,-1.1252,-1.1254,0,0,0,0,0,0,0,0,0,0,0,0,0,-1.1145,-1.1112,-1.1187,-1.1187,-1.1188,-1.1223,-1.1224,-1.1224,-1.1215,-1.1214,-1.1212,-1.1211,-1.1249,-1.1252,-1.1254,-1.1292,0,0,-1.1262,-1.1263,0,0,0,0,0,0,0,0,-1.1143,-1.1148,-1.1187,-1.1187,-1.1188,-1.1213,-1.1211,-1.1247,-1.1215,-1.1204,-1.1212,-1.1211,-1.1239,-1.1242,-1.1252,-1.1294,-1.1295,-1.1262,-1.1264,-1.1265,-1.1266,0,0,0,0,0,0,0,-1.1141,-1.1146,-1.1201,-1.1187,-1.1188,-1.1186,-1.119,-1.1218,-1.1227,-1.1205,-1.1205,-1.1209,-1.1239,-1.1249,-1.1252,-1.1296,-1.1262,-1.1265,-1.1266,-1.1267,-1.1372,-1.1373,0,0,0,0,0,0,-1.1138,-1.1144,-1.12,-1.1202,-1.1162,-1.1188,-1.1192,-1.1206,-1.1227,-1.1229,-1.121,-1.1208,-1.1245,-1.125,-1.1254,-1.13,-1.1265,-1.1267,-1.1269,-1.1371,-1.1372,-1.1373,0,0,0,0,0,0,-1.1136,-1.1143,-1.1199,-1.1173,-1.118,-1.1191,-1.1206,-1.1207,-1.1217,-1.1231,-1.1232,-1.1218,-1.1245,-1.125,-1.1283,-1.1302,-1.1269,-1.1271,-1.1369,-1.1371,-1.1373,-1.1393,0,0,0,0,0,0,-1.1134,-1.1142,-1.1156,-1.1173,-1.1181,-1.1227,-1.1207,-1.1209,-1.1222,-1.122,-1.1239,-1.1241,-1.1244,-1.1279,-1.1285,-1.1305,-1.1273,-1.1367,-1.137,-1.1372,-1.1391,-1.1396,-1.1399,0,0,0,0,0,-1.1131,-1.1161,-1.1157,-1.1164,-1.1199,-1.1228,-1.1232,-1.1235,-1.1223,-1.1238,-1.1246,-1.1241,-1.1298,-1.1282,-1.1289,-1.131,-1.1366,-1.1369,-1.1372,-1.1389,-1.1395,-1.1399,0,0,0,0,0,0,-1.1146,-1.1163,-1.1159,-1.1195,-1.121,-1.1226,-1.1245,-1.1241,-1.126,-1.1258,-1.126,-1.1265,-1.1298,-1.1307,-1.1289,-1.1348,-1.1331,-1.1335,-1.1341,-1.1347,-1.1351,-1.1349,-1.1275,0,0,0,0,0,-1.1153,-1.1175,-1.1188,-1.1219,-1.1226,-1.1234,-1.1247,-1.1247,-1.1263,-1.127,-1.128,-1.1296,-1.1318,-1.1332,-1.1353,-1.1391,-1.1396,-1.1409,-1.1413,-1.1416,-1.1421,-1.1443,-1.1449,-1.1383,-1.1383,-1.1383,0,0,-1.1169,-1.1181,-1.1194,-1.1222,-1.1234,-1.1256,-1.124,-1.1264,-1.1281,-1.1273,-1.1305,-1.1313,-1.1331,-1.1367,-1.1384,-1.1376,-1.144,-1.142,-1.1423,-1.1425,-1.1447,-1.1453,-1.1459,-1.1385,-1.1384,-1.1384,0,0,-1.121,-1.122,-1.1247,-1.1259,-1.1277,-1.1282,-1.1288,-1.1305,-1.131,-1.1341,-1.1336,-1.1357,-1.1394,-1.1407,-1.1419,-1.1464,-1.146,-1.147,-1.1494,-1.1515,-1.1521,-1.1525,-1.1543,-1.1549,-1.1474,-1.1474,-1.1474,0,-1.1227,-1.1261,-1.1261,-1.1287,-1.13,-1.1293,-1.1321,-1.1332,-1.1356,-1.1365,-1.1355,-1.1402,-1.1413,-1.1453,-1.1464,-1.1473,-1.1482,-1.1469,-1.152,-1.1524,-1.1529,-1.1546,-1.1552,-1.1476,-1.1475,-1.1475,-1.1475,0,-1.1282,-1.1305,-1.1325,-1.1348,-1.1363,-1.1389,-1.1395,-1.1409,-1.1408,-1.1415,-1.1447,-1.1461,-1.1484,-1.1493,-1.1493,-1.1533,-1.1528,-1.1519,-1.1502,-1.1536,-1.1553,-1.1559,-1.1477,-1.1477,-1.1477,-1.1476,0,0,-1.1335,-1.1357,-1.1365,-1.1376,-1.1394,-1.1413,-1.1439,-1.1461,-1.1475,-1.1491,-1.1514,-1.1545,-1.1537,-1.155,-1.1551,-1.1569,-1.1606,-1.1558,-1.1559,-1.1568,-1.1654,-1.1662,-1.1669,-1.1603,-1.1604,-1.1605,-1.1653,0,-1.1378,-1.1425,-1.1426,-1.1468,-1.1491,-1.1484,-1.1507,-1.1521,-1.1527,-1.1547,-1.1554,-1.1577,-1.1563,-1.1572,-1.1589,-1.1598,-1.1624,-1.1594,-1.1626,-1.1627,-1.1624,-1.1678,-1.1686,-1.1731,-1.1659,-1.166,-1.1661,0,-1.1436,-1.1454,-1.1499,-1.1515,-1.1524,-1.1545,-1.1566,-1.1585,-1.1601,-1.1604,-1.1619,-1.1617,-1.1644,-1.1625,-1.1663,-1.1643,-1.1656,-1.1662,-1.1664,-1.1669,-1.1647,-1.1686,-1.1745,-1.1753,-1.167,-1.167,-1.1669,0,-1.1472,-1.1507,-1.1539,-1.1548,-1.1567,-1.1582,-1.1591,-1.1606,-1.162,-1.1638,-1.1647,-1.1669,-1.1681,-1.1698,-1.1702,-1.1687,-1.1741,-1.1722,-1.1746,-1.1746,-1.1759,-1.1759,-1.1823,-1.1764,-1.1763,-1.1763,-1.1763,0,-1.1522,-1.155,-1.1556,-1.1576,-1.1607,-1.1608,-1.1639,-1.1647,-1.166,-1.1682,-1.1676,-1.1697,-1.17,-1.1721,-1.1724,-1.1756,-1.1761,-1.1766,-1.1767,-1.1768,-1.1767,-1.1777,-1.1775,-1.1765,-1.1765,-1.1764,-1.1764,0,-1.1569,-1.1574,-1.1608,-1.1623,-1.1627,-1.165,-1.1663,-1.1682,-1.1687,-1.1715,-1.1721,-1.173,-1.1754,-1.1759,-1.1789,-1.1791,-1.183,-1.1827,-1.1825,-1.1825,-1.185,-1.1848,-1.1925,-1.1936,-1.1867,-1.1868,-1.1868,0,-1.1602,-1.1623,-1.1641,-1.1654,-1.1664,-1.1686,-1.17,-1.1702,-1.1717,-1.1737,-1.1754,-1.1778,-1.1797,-1.1837,-1.1846,-1.1869,-1.1867,-1.1893,-1.1871,-1.1871,-1.187,-1.187,-1.1873,-1.1898,-1.1898,-1.1899,-1.19,0,-1.166,-1.1661,-1.1682,-1.1703,-1.172,-1.1736,-1.1752,-1.1764,-1.1768,-1.1785,-1.181,-1.1825,-1.1855,-1.1879,-1.1902,-1.1911,-1.1907,-1.1906,-1.1913,-1.1915,-1.1914,-1.1917,-1.1838,-1.1905,-1.1904,-1.1904,-1.1904,-1.1903,-1.1702,-1.1722,-1.1737,-1.176,-1.1772,-1.1787,-1.1806,-1.1813,-1.1834,-1.1859,-1.1858,-1.1886,-1.1901,-1.1931,-1.1942,-1.1964,-1.1956,-1.1966,-1.1969,-1.1972,-1.1976,-1.1909,-1.1968,-1.1968,-1.1968,-1.1968,-1.1967,0,-1.1762,-1.1772,-1.1792,-1.1815,-1.1833,-1.1826,-1.1843,-1.1859,-1.1884,-1.1898,-1.1918,-1.1947,-1.1971,-1.1981,-1.2005,-1.2021,-1.2019,-1.2027,-1.2027,-1.203,-1.198,-1.1973,-1.2028,-1.2028,-1.2028,-1.2028,-1.2028,-1.2028,-1.1796,-1.1828,-1.1831,-1.187,-1.1879,-1.1906,-1.1917,-1.1931,-1.1943,-1.1976,-1.1995,-1.2002,-1.2015,-1.204,-1.2061,-1.2064,-1.2074,-1.2083,-1.2085,-1.2039,-1.2033,-1.2027,-1.202,-1.2084,-1.2084,-1.2132,-1.2133,-1.2133]}]]